HST, 20580

Orbit data source: Space-Track

The Hubble Space Telescope is a large observatory located in Earth's orbit that has transformed the field of astronomy. Launched in 1990, Hubble has made significant contributions to all domains of astronomy, such as determining the universe's age, the existence of dark energy, and the rate of its expansion. The telescope’s high-resolution images provide detailed and precise views of distant galaxies, nebulae, and star clusters, establishing it as one of the most important telescopes in the history of astronomy.

Not visible in the next 10 days
Identifier
20580, 1990-037B
Orbit
LEO
Country
Flag of USUS
Related business
Manufacturer
LMSC
Mission
Operational Civil Astronomy
Bus & Motor
HST, Unknown motor
Mass
10,843 kg wet, 7,547 kg dry
Launch date (UTC)
1990-04-24 (36 years ago)
Launch vehicle
SPACE SHUTTLE
Launch site
Air Force Eastern Test Range (AFETR)
Object type
Payload
Rocket body
Debris
Shape & HBR
Cyl + 2 Pan, 8.4 m
Radar Cross Section
51.502 m², Large (>1 m²)

Expand to show TLE details & history
Last TLE update: 16 hours ago

TLE from 16 hours ago
0 HST
1 20580U 90037B   26129.28095211  .00005882  00000-0  18713-3 0  9998
2 20580  28.4761 346.3880 0002181  70.8107 289.2725 15.30334281782600
Epoch: 2026-05-09T06:44Z
TLE epoch observation values (Epoch: 2026-05-09T06:44:34.262Z)
Latitude
-0°
Longitude
18.1446°
Altitude
472.575 km
Speed
7.633 km/s
True Right ascension
23h 05m 33s
True Declination
0° 00' 00"
Sunlit
Object was in daylight at epoch
Visualization orbit readout
Latitude
Unknown
Longitude
Unknown
Altitude
Unknown
Speed
Unknown
Apparent Right ascension
Unknown
Apparent Declination
Unknown
Sunlit
N/A
Visualization observer readout
Local Sidereal Time
06:52:18
Azimuth
Unknown
Elevation
Unknown
Doppler factor
Unknown
Orbital elements
Apogee altitude
480.551 km
Perigee altitude
477.56 km
Semi-major axis
6,857.193 km
Eccentricity
0.00022
Inclination
28.4761°
RAAN
346.388°
Arg. of periapsis
70.8107°
True anomaly
289.24891°
Mean anomaly
289.2725°
Eccentric anomaly
289.2607°
Mean motion
3.82229 °/min
Orbital period
94.18 mins
BSTAR
0.00018713
Loading maneuver chart data...
Computing Atmospheric mass density...
Loading historical data...
Loading historical data...
Loading historical data...
Loading historical data...
Loading historical data...
Loading historical data...
Loading historical data...
Other satellites on launch #37 in the year 1990 (1990-04-24 UTC)

Documentation

Showing up to 5 results
|